Location: Brachstadt
(48.6975°N, 10.6755°E)
Time: 08:57:54
(UTC+00:00)

USA 186 - Pass Details

Date: 18 September 2020
Orbit: 261 x 425 km, 96.9° (Epoch: 12 October)

Event Time Altitude Azimuth Distance (km) Brightness Sun altitude
Exits shadow 18:49:23 15° 169° (S) 1,193 3.7 -14.8°
Maximum altitude 18:51:54 84° 259° (WSW) 417 1.7 -15.2°
Drops below altitude 10° 18:55:08 10° 347° (NNW) 1,512 5.0 -15.7°
Sets 18:57:12 0° 348° (NNW) 2,397 6.1 -16.0°
